Regional Weather Roundup
Issued by NWS Cleveland, OH

Home | Current Version | Previous Version | Graphics & Text | Print | Product List | Glossary On
Versions: 1 2 3 4 5 6 7 8 9 10 11 12 13 14 15 16 17 18 19 20 21 22 23 24 25 26 27 28 29 30 31 32 33 34 35 36 37 38 39 40 41 42 43 44 45 46 47 48 49 50
000
ASUS41 KCLE 200600
RWRCLE
OHIO REGIONAL WEATHER ROUNDUP
NATIONAL WEATHER SERVICE WILMINGTON, OH
100 AM EST MON FEB 20 2017

NOTE: "FAIR" INDICATES FEW OR NO CLOUDS BELOW 12,000 FEET WITH NO
SIGNIFICANT WEATHER AND/OR OBSTRUCTIONS TO VISIBILITY.

OHZ001>008-015>018-024>027-034-035-043-044-200700-
   NORTHWEST OHIO

CITY           SKY/WX    TMP DP  RH WIND       PRES   REMARKS
DEFIANCE       FAIR      36  31  82 CALM      30.17R
FINDLAY        FAIR      43  32  65 CALM      30.16R
TOLEDO EXPRESS FAIR      40  32  73 E3        30.17R
TOLEDO EXEC    FAIR      40  34  79 NE3       30.18R
LIMA           FAIR      42  40  92 S5        30.16S
$$

OHZ009>014-019>023-028>033-038-089-200700-
   NORTHEAST OHIO

CITY           SKY/WX    TMP DP  RH WIND       PRES   REMARKS
CLE-HOPKINS    FAIR      42  32  67 CALM      30.19R
CLE-LAKEFRONT  FAIR      38  33  82 CALM      30.16R
CUY CO. ARPT   NOT AVBL
LORAIN-ELYRIA  FAIR      38  32  79 CALM      30.17R
ASHTABULA      FAIR      33  31  92 CALM      30.17R
AKRON-CANTON   FAIR      40  33  76 CALM      30.16R
WOOSTER        NOT AVBL
MANSFIELD      FAIR      42  41  96 SW5       30.16R
YOUNGSTOWN     FAIR      39  30  70 E3        30.16R
$$

OHZ042-051>053-060>062-070>072-077>081-200700-
  SOUTHWEST OHIO

CITY           SKY/WX    TMP DP  RH WIND       PRES   REMARKS
CINC-COVINGTON FAIR      40  39  97 CALM      30.17R FOG
CINC-LUNKEN    FOG       37  37 100 CALM      30.20R VSB 1/4
HAMILTON       MOCLDY    34  34 100 CALM      30.19S FOG
DAYTON         NOT AVBL
WRIGHT-PAT AFB NOT AVBL
DAYTON GENERAL FAIR      43  42  97 S5        30.17R FOG
WILMINGTON     FOG       39  39 100 CALM      30.18R VSB 1/4
$$

OHZ036-037-039>041-045>050-054>059-063>069-073>076-082>088-200700-
  CENTRAL AND SOUTHEAST OHIO

CITY           SKY/WX    TMP DP  RH WIND       PRES   REMARKS
COLUMBUS       FAIR      42  39  89 SE3       30.19R FOG
OSU AIRPORT    FAIR      42  42 100 S3        30.18R FOG
BOLTON FIELD   NOT AVBL
RICKENBACK AFB NOT AVBL
NEWARK         FOG       34  33  96 CALM      30.18R VSB 1/4
MARION         FAIR      37  36  96 S5        30.17R FOG
LANCASTER      FOG       34  33  96 CALM      30.20R VSB 1/4
ZANESVILLE     FOG       37  35  92 CALM      30.18S VSB 1/2
NEW PHILLY     FAIR      38  37  97 SE3       30.17S FOG
$$



USA.gov is the U.S. government's official web portal to all federal, state and local government web resources and services.